Location: Hard
(49.9417°N, 12.0858°E)
Time: 01:21:01
(UTC+00:00)

Daily predictions for brighter satellites

Satellite Brightness Start Highest point End
(mag) Time Altitude Azimuth Time Altitude Azimuth Time Altitude Azimuth
STARLINK-1337 4.0 00:00:00 10° WNW 00:03:01 45° N 00:06:03 10° ENE
STARLINK-1342 4.0 00:00:19 10° WNW 00:03:20 45° N 00:06:22 10° ENE
STARLINK-1364 4.0 00:00:39 10° WNW 00:03:41 45° N 00:06:43 10° ENE
STARLINK-1376 4.0 00:00:59 10° WNW 00:04:01 45° N 00:07:02 10° ENE
STARLINK-1360 4.0 00:01:19 10° WNW 00:04:21 45° N 00:07:23 10° ENE
STARLINK-1268 3.5 00:04:28 37° SE 00:04:28 37° SE 00:07:16 10° ENE
STARLINK-1361 4.0 00:01:40 10° WNW 00:04:42 45° N 00:07:44 10° ENE
STARLINK-1301 3.9 00:03:56 36° S 00:04:46 41° SE 00:08:25 10° ENE
STARLINK-1367 4.0 00:01:56 10° WNW 00:05:00 46° N 00:08:04 10° ENE
STARLINK-1366 4.0 00:02:20 10° WNW 00:05:21 45° N 00:08:23 10° ENE
Cosmos 1400 Rocket 3.4 00:02:26 10° N 00:06:32 57° ENE 00:09:10 21° SSE
STARLINK-1303 3.9 00:05:53 36° S 00:06:38 40° SE 00:10:10 10° ENE
STARLINK-66 3.0 00:07:08 47° SSW 00:07:45 58° SSE 00:10:55 10° ENE
Cosmos 1570 Rocket 4.0 00:04:53 27° SSW 00:07:52 85° ESE 00:13:10 10° NNE
Cosmos 2227 Rocket 3.4 00:03:27 10° NW 00:08:03 26° WSW 00:10:10 21° SW
Cosmos 1709 Rocket 3.9 00:05:05 25° SSW 00:08:53 85° W 00:15:08 10° N
Cosmos 1763 Rocket 3.7 00:05:57 23° SW 00:09:03 62° WNW 00:14:05 10° NNE
STARLINK-1338 4.3 00:05:33 10° W 00:09:28 53° N 00:13:23 10° ENE
STARLINK-1316 3.3 00:09:23 41° SSE 00:09:31 41° SSE 00:12:29 10° ENE
STARLINK-1312 3.8 00:09:13 36° S 00:10:06 43° SE 00:13:41 10° ENE
STARLINK-1257 3.3 00:10:14 41° SSE 00:10:24 42° SSE 00:13:23 10° ENE
STARLINK-1256 3.3 00:11:11 42° SSE 00:11:22 42° SSE 00:14:22 10° ENE
STARLINK-58 3.8 00:11:42 32° SE 00:11:42 32° SE 00:14:35 10° E
STARLINK-1213 3.2 00:12:02 42° SSE 00:12:15 43° SSE 00:15:14 10° ENE
STARLINK-52 3.5 00:09:32 10° WNW 00:12:44 61° NNE 00:15:54 10° E
Cosmos 2084 Rocket 3.8 00:08:34 10° NW 00:12:53 48° SW 00:14:58 27° S
STARLINK-1263 3.2 00:12:53 42° SSE 00:13:09 43° SSE 00:16:08 10° ENE
STARLINK-1259 3.2 00:13:47 43° SSE 00:14:04 44° SSE 00:17:05 10° ENE
STARLINK-1265 3.2 00:14:10 43° S 00:14:29 45° SSE 00:17:31 10° ENE
Cosmos 2227 4.4 00:08:47 10° NNW 00:14:34 74° ENE 00:20:20 10° SE
STARLINK-1285 3.2 00:14:38 43° S 00:14:57 45° SSE 00:17:57 10° ENE
Cosmos 2298 Rocket 4.0 00:10:13 10° NNW 00:15:33 86° ENE 00:19:50 16° SSE
SL-16 R/B 3.0 00:10:39 10° SE 00:16:41 60° ENE 00:22:46 10° N
STARLINK-1296 3.1 00:16:22 43° S 00:16:45 46° SSE 00:19:46 10° ENE
STARLINK-1260 3.1 00:17:14 43° S 00:17:38 47° SSE 00:20:41 10° ENE
Cosmos 1758 Rocket 3.6 00:15:28 29° SSW 00:17:40 71° WNW 00:22:07 10° N
STARLINK-1371 4.3 00:13:56 10° WNW 00:17:50 53° N 00:21:44 10° E
STARLINK-1318 3.1 00:18:06 43° S 00:18:33 48° SSE 00:21:35 10° ENE
STARLINK-75 2.9 00:18:02 40° SW 00:18:58 62° SSE 00:22:10 10° ENE
STARLINK-1275 3.1 00:18:59 43° S 00:19:27 48° SSE 00:22:30 10° ENE
STARLINK-48 4.4 00:19:05 27° SSE 00:19:51 30° SE 00:23:17 10° E
STARLINK-1309 3.1 00:19:50 43° S 00:20:21 49° SSE 00:23:22 10° ENE
STARLINK-1282 3.1 00:20:42 43° S 00:21:14 50° SSE 00:24:16 10° ENE
STARLINK-1283 3.7 00:20:03 29° SW 00:21:52 56° SSE 00:25:55 10° ENE
IRAS Rocket 4.2 00:18:06 21° S 00:21:55 75° WSW 00:27:28 10° NNW
CZ-4 R/B 4.4 00:17:30 10° N 00:22:03 48° WNW 00:24:50 22° SW
STARLINK-1341 4.3 00:18:19 10° WNW 00:22:14 53° N 00:26:09 10° E
STARLINK-1313 2.9 00:21:38 43° SSW 00:22:20 56° SSE 00:25:25 10° ENE
STARLINK-80 3.5 00:21:06 32° SSW 00:22:32 53° SSE 00:26:15 10° ENE
STARLINK-1279 2.9 00:22:33 43° SSW 00:23:16 57° SSE 00:26:21 10° ENE
STARLINK-1298 3.0 00:23:16 42° SSW 00:23:54 52° SSE 00:26:57 10° ENE
STARLINK-1293 3.0 00:24:09 42° SSW 00:24:50 53° SSE 00:27:53 10° ENE
SL-16 R/B 3.5 00:22:44 15° SSE 00:26:31 29° ESE 00:31:21 10° NE
STARLINK-1374 4.3 00:22:40 10° WNW 00:26:37 54° N 00:30:33 10° E
STARLINK-1255 3.0 00:25:54 41° SSW 00:26:38 54° SSE 00:29:43 10° ENE
Cosmos 2208 Rocket 4.0 00:23:37 24° SSW 00:26:52 82° WNW 00:32:17 10° NNE
STARLINK-22 3.0 00:26:16 38° SSW 00:27:13 59° SSE 00:30:24 10° ENE
STARLINK 1040 3.0 00:26:21 21° W 00:27:48 53° NNW 00:30:19 10° ENE
STARLINK-1297 3.4 00:26:32 33° SSW 00:27:49 53° SSE 00:31:21 10° ENE
Cosmos 2285 Rocket 4.4 00:22:05 10° NNW 00:28:07 46° WSW 00:31:54 22° SSW
STARLINK-1444 4.1 00:26:02 10° WNW 00:26:52 20° WNW 00:26:52 20° WNW
STARLINK-1452 4.3 00:26:41 10° WNW 00:27:18 16° WNW 00:27:18 16° WNW
STARLINK-1311 2.7 00:28:27 43° SW 00:29:11 64° SSE 00:32:07 10° ENE
STARLINK-1436 (VISORSAT) 4.5 00:28:07 10° WNW 00:28:34 14° WNW 00:28:34 14° WNW
STARLINK-1339 4.3 00:26:57 10° WNW 00:30:52 54° N 00:34:46 10° E
CZ-2D R/B 2.9 00:26:14 10° NNE 00:31:13 43° E 00:35:02 16° SSE
Cosmos-2242 3.4 00:28:18 10° NNW 00:32:23 46° W 00:34:23 26° SSW
MOZ.5/SAFIR/RUBIN 5/SL-8 3.8 00:29:15 18° SSE 00:32:41 85° ENE 00:37:22 10° NNW
Meteor 2-10 Rocket 4.4 00:28:11 10° NNW 00:32:47 34° W 00:35:15 22° SW
USA 81 4.5 00:30:17 23° SSW 00:33:26 52° WNW 00:38:37 10° N
USA 215 3.6 00:28:07 11° SSE 00:33:57 41° SW 00:40:06 10° WNW
Cosmos 2221 3.5 00:31:02 10° N 00:35:15 45° ENE 00:39:27 10° SSE
STARLINK-1377 4.3 00:31:22 10° WNW 00:35:19 55° N 00:39:16 10° E
Cosmos 1953 Rocket 3.5 00:33:32 26° SSW 00:36:01 81° WNW 00:40:26 10° N
BREEZE-M R/B 2.8 00:32:12 10° W 00:37:54 88° S 00:40:57 10° E
STARLINK-42 2.7 00:36:26 27° WSW 00:37:57 85° SSE 00:41:05 10° ENE
STARLINK-1353 4.3 00:35:42 10° WNW 00:39:39 55° N 00:43:36 10° E
STARLINK-1029 3.4 00:39:04 34° S 00:39:50 41° SSE 00:42:50 10° ENE
GP-B 3.1 00:35:37 10° N 00:40:06 85° E 00:42:59 22° S
STARLINK-60 2.9 00:37:35 10° WNW 00:40:44 56° SSW 00:43:51 10° SE
STARLINK-34 3.0 00:40:02 36° SSW 00:40:56 52° SSE 00:43:56 10° ENE
FALCON 9 DEB 3.5 00:37:42 10° WNW 00:41:08 66° NNE 00:44:35 10° E
STARLINK-41 2.7 00:40:11 27° WSW 00:41:40 86° SSE 00:44:45 10° ENE
CZ-4C R/B 3.6 00:38:34 18° SSE 00:41:52 88° ENE 00:46:20 10° NNW
Cosmos 1315 Rocket 3.5 00:38:15 10° N 00:42:07 50° ENE 00:45:45 11° SSE
Cosmos 1842 Rocket 3.9 00:37:47 10° N 00:42:15 64° ENE 00:46:05 13° SSE
STARLINK-1272 3.1 00:42:02 26° SW 00:43:51 68° SSE 00:47:23 10° ENE
STARLINK-1375 4.3 00:40:05 10° WNW 00:44:02 56° N 00:48:00 10° E
Cosmos 540 Rocket 3.7 00:41:07 21° SW 00:44:32 60° WNW 00:49:38 10° NNE
STARLINK-62 2.9 00:43:44 34° SSW 00:44:46 55° SSE 00:47:47 10° ENE
Helios 1B rocket 3.9 00:44:15 10° N 00:47:47 27° WNW 00:50:24 15° WSW
STARLINK-1350 4.2 00:44:25 10° WNW 00:48:23 57° N 00:52:21 10° E
Cosmos 2360 Rocket 4.1 00:45:00 10° SE 00:48:57 20° E 00:52:55 10° NE
STARLINK-1307 3.2 00:46:48 23° SW 00:49:00 72° SSE 00:52:43 10° ENE
STARLINK-1290 3.2 00:50:11 21° WSW 00:52:31 75° SSE 00:56:15 10° ENE
STARLINK-1352 4.2 00:48:41 10° WNW 00:52:39 57° N 00:56:36 10° E
Cosmos 2058 4.3 00:50:48 11° SSE 00:54:27 33° E 00:58:15 10° NNE
IKONOS-2 4.5 00:51:35 16° SSE 00:55:02 86° W 00:59:21 10° NNW
Cosmos 1980 Rocket 2.5 00:51:50 18° SW 00:56:01 63° WNW 01:01:40 10° NNE
Cosmos 2074 Rocket 4.0 00:51:22 18° S 00:56:15 89° E 01:02:34 10° N
Meteor 1-29 4.5 00:53:38 10° N 00:56:26 25° WNW 00:58:11 16° WSW
STARLINK-1368 4.2 00:53:16 10° WNW 00:57:15 58° N 01:01:14 10° E
Cosmos 1455 4.1 00:56:34 10° NW 00:58:49 15° W 01:00:05 13° WSW
STARLINK-1317 3.4 00:56:34 17° WSW 00:59:30 84° SSE 01:03:25 10° ENE
CZ-4B R/B 4.1 00:54:57 10° NNE 01:00:07 56° E 01:04:34 14° S
STARLINK-1369 4.1 00:57:42 10° WNW 01:01:42 60° N 01:05:41 10° E
STARLINK-55 3.2 01:00:33 13° W 01:03:22 67° NNW 01:06:34 10° ENE
STARLINK-1274 3.1 01:00:56 18° WSW 01:03:30 87° SSE 01:07:04 10° ENE
STARLINK-43 3.9 01:01:10 10° W 01:04:48 57° N 01:08:27 10° ENE
STARLINK-1372 4.1 01:01:57 10° WNW 01:05:57 61° NNE 01:09:55 10° E
STARLINK-1291 3.3 01:04:15 15° WSW 01:07:13 89° SE 01:10:58 10° ENE
Meteor 1-11 4.4 01:03:54 18° SSW 01:08:00 61° WNW 01:13:33 10° N
STARLINK-1300 4.4 01:06:40 20° SSW 01:08:54 36° SE 01:12:44 10° ENE
ADEOS II 3.2 01:04:20 10° NNE 01:09:16 38° E 01:14:09 10° SSE
STARLINK-1264 3.3 01:07:26 14° WSW 01:10:32 88° N 01:14:17 10° ENE
Cosmos 2263 Rocket 2.3 01:05:07 10° NW 01:10:34 53° WSW 01:15:57 10° S
STARLINK-1378 4.1 01:06:35 10° WNW 01:10:36 62° NNE 01:14:35 10° E
IRS-1D 4.2 01:07:27 10° NNE 01:12:36 51° E 01:17:31 11° S
STARLINK-29 2.9 01:10:22 10° WNW 01:13:32 59° SSW 01:16:40 10° SE
STARLINK-1295 4.3 01:11:26 20° SSW 01:13:50 39° SE 01:17:43 10° ENE
STARLINK-1267 3.3 01:10:40 13° WSW 01:13:53 85° NNW 01:17:39 10° ENE
NOSS 2-1 (C) 3.3 01:12:05 21° SSW 01:14:06 55° SE 01:17:42 10° NE
AQUA 4.0 01:09:35 10° NNE 01:14:22 71° ESE 01:18:24 14° S
STARLINK-28 3.5 01:11:45 10° W 01:14:56 59° NNW 01:18:07 10° ENE
SL-4 R/B 2.6 01:10:27 10° WNW 01:15:03 44° SSW 01:19:30 10° SE
STARLINK-1379 4.0 01:11:05 10° WNW 01:15:06 64° NNE 01:19:07 10° E
UNK 4.0 01:11:40 16° S 01:15:10 53° W 01:19:40 10° NNW
STARLINK-64 3.4 01:14:12 20° SW 01:16:28 56° SSE 01:19:59 10° ENE
USA 229 DEB 4.0 01:09:22 10° NW 01:16:28 59° SW 01:23:54 10° SSE
USA 229 4.0 01:09:29 10° NW 01:16:35 59° SW 01:24:00 10° SSE
NOSS 3-1 (C) 4.2 01:10:03 10° NW 01:17:20 56° WSW 01:25:39 10° SSE
NPP 3.7 01:12:52 10° NNE 01:18:18 90° E 01:22:54 15° SSW
STARLINK-1287 4.2 01:16:13 19° SSW 01:18:48 42° SE 01:22:43 10° ENE
STARLINK-1329 4.0 01:14:53 10° WNW 01:18:54 66° NNE 01:22:56 10° E
ARIANE 5 R/B 4.1 01:14:37 10° NE 01:18:56 28° E 01:23:13 10° SSE
NOSS 2-1 (D) 3.1 01:16:50 20° SSW 01:19:00 62° SE 01:22:38 10° NE
STARLINK-1207 3.4 01:17:09 11° WSW 01:20:40 80° NNW 01:24:26 10° ENE
Cosmos 2184 Rocket 4.1 01:16:26 16° SSW 01:21:26 65° WNW 01:27:36 10° N
ERS-2 4.3 01:19:49 10° ESE 01:22:55 27° ENE 01:26:04 10° N
STARLINK-1362 3.9 01:19:25 10° WNW 01:23:27 68° NNE 01:27:29 10° E
CZ-4C R/B 3.7 01:18:32 10° W 01:23:33 35° NNW 01:29:31 10° NE
STARLINK-1266 3.4 01:20:25 11° WSW 01:24:04 78° NNW 01:27:50 10° ENE
BREEZE-M DEB (TANK) 1.9 01:23:14 23° SW 01:24:16 52° SSE 01:27:19 10° E
STARLINK-33 3.5 01:22:03 10° W 01:25:08 56° NNW 01:28:13 10° ENE
Cosmos 1892 3.0 01:21:53 13° S 01:25:11 62° E 01:28:57 10° NNE
NOSS 3-1 (A) 4.1 01:18:10 10° NW 01:25:35 69° SW 01:34:07 10° SSE
STARLINK-1299 4.0 01:24:05 17° SW 01:27:13 54° SSE 01:31:24 10° ENE
STARLINK-1284 3.5 01:23:43 10° WSW 01:27:29 75° NNW 01:31:15 10° ENE
STARLINK-1373 3.9 01:23:57 10° WNW 01:27:58 70° NNE 01:32:00 10° E
STARLINK-1320 3.0 01:25:04 10° WNW 01:28:11 77° NNE 01:31:18 10° ESE
STARLINK-1322 3.0 01:25:24 10° WNW 01:28:33 77° NNE 01:31:40 10° ESE
STARLINK-26 3.7 01:25:13 10° W 01:28:37 58° NNW 01:32:02 10° ENE
BREEZE-M DEB (TANK) 0.9 01:26:18 10° W 01:28:40 75° S 01:31:21 10° ESE
STARLINK-1302 4.0 01:25:46 17° SW 01:28:42 48° SSE 01:32:42 10° ENE
STARLINK-1324 3.0 01:25:43 10° WNW 01:28:52 78° NNE 01:31:59 10° ESE
STARLINK-1294 3.0 01:26:01 10° WNW 01:29:10 78° NNE 01:32:19 10° ESE
STARLINK-1261 3.0 01:26:25 10° WNW 01:29:33 78° NNE 01:32:40 10° ESE
Cosmos 1610 Rocket 4.5 01:24:10 13° SSW 01:29:42 80° W 01:35:57 10° N
Cosmos 1869 3.4 01:25:59 10° NNW 01:29:46 54° W 01:33:01 13° S
STARLINK-1325 3.0 01:26:46 10° WNW 01:29:54 79° NNE 01:33:01 10° ESE
STARLINK-1333 3.0 01:27:08 10° WNW 01:30:16 79° NNE 01:33:24 10° ESE
STARLINK-1334 3.0 01:27:25 10° WNW 01:30:33 79° NNE 01:33:40 10° ESE
STARLINK-1326 3.0 01:27:44 10° WNW 01:30:52 79° NNE 01:34:00 10° ESE
STARLINK-1258 3.5 01:27:11 10° WSW 01:30:56 73° NNW 01:34:41 10° ENE
STARLINK-1323 3.0 01:28:08 10° WNW 01:31:15 80° NNE 01:34:23 10° ESE
STARLINK-1349 2.9 01:28:25 10° WNW 01:31:34 80° NNE 01:34:41 10° ESE
STARLINK-1336 2.9 01:28:44 10° WNW 01:31:53 80° NNE 01:35:00 10° ESE
STARLINK-1331 2.9 01:29:08 10° WNW 01:32:16 81° NNE 01:35:23 10° ESE
STARLINK-1344 2.9 01:29:26 10° WNW 01:32:33 81° NNE 01:35:41 10° ESE
STARLINK-1390 3.8 01:28:32 10° WNW 01:32:35 72° NNE 01:36:38 10° ESE
STARLINK-1343 2.9 01:29:48 10° WNW 01:32:56 81° NNE 01:36:04 10° ESE
STARLINK-1346 3.0 01:30:05 10° WNW 01:33:15 82° NNE 01:36:24 10° ESE
STARLINK-1273 4.0 01:30:32 16° SW 01:33:39 51° SSE 01:37:41 10° ENE
STARLINK-1328 2.9 01:30:32 10° WNW 01:33:40 82° NNE 01:36:47 10° ESE
STARLINK-1354 2.9 01:30:49 10° WNW 01:33:57 82° NNE 01:37:04 10° ESE
STARLINK-1347 2.9 01:31:06 10° WNW 01:34:14 82° NNE 01:37:22 10° ESE
STARLINK-1292 3.6 01:30:37 10° WSW 01:34:22 71° NNW 01:38:07 10° ENE
Cosmos 2322 Rocket 2.3 01:29:42 14° SSW 01:34:37 75° ESE 01:40:15 10° NNE
STARLINK-1357 2.9 01:31:32 10° WNW 01:34:40 83° NNE 01:37:48 10° ESE
STARLINK-1335 2.9 01:31:49 10° WNW 01:34:57 83° NNE 01:38:05 10° ESE
STARLINK-1327 2.9 01:32:10 10° WNW 01:35:18 83° NNE 01:38:26 10° ESE
STARLINK-1340 2.9 01:32:28 10° WNW 01:35:37 84° NNE 01:38:44 10° ESE
STARLINK-1356 2.9 01:32:51 10° WNW 01:35:59 84° NNE 01:39:06 10° ESE
STARLINK-1345 2.9 01:33:10 10° WNW 01:36:17 84° NNE 01:39:25 10° ESE
In-Cosmos 22 Rocket 4.2 01:31:02 11° S 01:36:23 86° ESE 01:41:52 10° NNE
STARLINK-1355 2.9 01:33:31 10° WNW 01:36:39 85° NNE 01:39:47 10° ESE
STARLINK-1321 2.9 01:33:52 10° WNW 01:37:00 85° NNE 01:40:07 10° ESE
STARLINK-1358 2.9 01:34:15 10° WNW 01:37:23 85° NNE 01:40:31 10° ESE
STARLINK-1332 2.9 01:34:32 10° WNW 01:37:40 86° NNE 01:40:47 10° ESE
STARLINK-1348 2.9 01:34:52 10° WNW 01:38:01 86° NNE 01:41:08 10° ESE
STARLINK-1330 2.9 01:35:12 10° WNW 01:38:21 86° NNE 01:41:27 10° ESE
STARLINK-1365 3.8 01:34:31 10° WNW 01:38:36 76° NNE 01:42:41 10° ESE
STARLINK-1288 3.9 01:35:19 15° SW 01:38:37 54° SSE 01:42:40 10° ENE
STARLINK-1363 2.9 01:35:32 10° WNW 01:38:41 87° NNE 01:41:48 10° ESE
STARLINK-61 4.1 01:35:51 15° SSW 01:38:44 43° SE 01:42:29 10° ENE
STARLINK-1337 2.8 01:35:55 10° WNW 01:39:03 87° NNE 01:42:11 10° ESE
STARLINK-1342 2.8 01:36:13 10° WNW 01:39:22 87° NNE 01:42:29 10° ESE
STARLINK-1364 2.8 01:36:34 10° WNW 01:39:42 88° NNE 01:42:50 10° ESE
STARLINK-1268 3.4 01:36:58 10° W 01:40:01 59° NNW 01:43:06 10° ENE
STARLINK-1376 2.8 01:36:54 10° WNW 01:40:02 88° NNE 01:43:10 10° ESE
Resurs 1-4 Rocket 2.5 01:35:01 10° N 01:40:10 54° WNW 01:44:54 12° SW
STARLINK-1360 2.8 01:37:14 10° WNW 01:40:23 88° NNE 01:43:31 10° ESE
STARLINK-1361 2.8 01:37:35 10° WNW 01:40:43 89° NNE 01:43:51 10° ESE
STARLINK-1367 2.8 01:37:51 10° WNW 01:41:01 90° NNE 01:44:11 10° ESE
STARLINK-1289 3.7 01:37:30 10° W 01:41:14 68° NNW 01:44:59 10° ENE
STARLINK-1366 2.8 01:38:15 10° WNW 01:41:22 89° NE 01:44:30 10° ESE
STARLINK-1301 3.8 01:39:23 10° W 01:43:13 66° NNW 01:47:04 10° ENE
STARLINK-1308 3.8 01:40:08 14° SW 01:43:37 59° SSE 01:47:43 10° ENE
STARLINK-66 3.8 01:40:47 10° W 01:43:56 51° N 01:47:05 10° ENE
Cosmos 1076 Rocket 3.5 01:39:51 11° S 01:43:58 84° W 01:48:22 10° N
Cosmos 1125 Rocket 4.3 01:39:46 10° NW 01:44:21 32° WSW 01:48:54 10° SSW
STARLINK-1303 3.7 01:40:59 10° W 01:44:43 66° NNW 01:48:28 10° ENE
STARLINK-1316 3.5 01:42:13 10° W 01:45:18 56° NNW 01:48:23 10° ENE
Cosmos 2151 3.9 01:41:40 10° SSE 01:45:46 46° E 01:49:54 10° NNE
STARLINK-1257 3.5 01:43:06 10° W 01:46:12 56° NNW 01:49:18 10° ENE
COBE Rocket 4.4 01:41:20 10° SSE 01:46:24 71° ENE 01:51:34 10° N
STARLINK-1256 3.5 01:44:05 10° W 01:47:10 56° NNW 01:50:15 10° ENE
STARLINK-58 3.3 01:44:25 10° W 01:47:36 65° NNW 01:50:46 10° ENE
H-2A R/B 3.4 01:43:28 10° SE 01:47:43 45° ENE 01:52:02 10° N
STARLINK-1213 3.5 01:44:58 10° W 01:48:03 55° NNW 01:51:07 10° ENE
STARLINK-1312 3.8 01:44:28 10° W 01:48:14 64° NNW 01:51:59 10° ENE
STARLINK-1338 3.6 01:44:43 10° WNW 01:48:43 82° NNE 01:52:43 10° ESE
STARLINK-52 3.4 01:45:46 10° WNW 01:48:46 37° SSW 01:51:45 10° SE
STARLINK-1263 3.5 01:45:52 10° W 01:48:56 55° NNW 01:52:01 10° ENE
STARLINK-1259 3.5 01:46:48 10° W 01:49:53 55° NNW 01:52:58 10° ENE
STARLINK-1265 3.5 01:47:11 10° W 01:50:16 55° NNW 01:53:24 10° ENE
STARLINK-1285 3.5 01:47:41 10° W 01:50:45 54° NNW 01:53:50 10° ENE
STARLINK-1296 3.6 01:49:30 10° W 01:52:34 54° NNW 01:55:40 10° ENE
Cosmos 1408 2.7 01:49:43 10° S 01:53:24 80° E 01:57:05 10° NNE
STARLINK-1260 3.6 01:50:24 10° W 01:53:29 53° N 01:56:34 10° ENE
STARLINK-1304 3.7 01:49:41 11° SW 01:53:33 66° SSE 01:57:40 10° ENE
STARLINK-1318 3.6 01:51:18 10° W 01:54:23 53° N 01:57:28 10° ENE
STARLINK-75 3.8 01:52:01 10° W 01:55:11 50° N 01:58:21 10° ENE
STARLINK-1275 3.6 01:52:13 10° W 01:55:17 53° NNW 01:58:22 10° ENE
Cosmos 2154 Rocket 4.3 01:49:51 11° SSW 01:55:49 56° WNW 02:01:57 10° N
STARLINK-1309 3.6 01:53:06 10° W 01:56:11 52° N 01:59:15 10° ENE
STARLINK-1371 3.5 01:52:59 10° WNW 01:56:58 88° NNE 02:00:56 10° ESE
GEOS 3 Rocket 4.0 01:52:06 10° SSE 01:57:00 42° WSW 02:02:01 10° NW
STARLINK-1282 3.6 01:54:01 10° W 01:57:04 52° N 02:00:09 10° ENE
STARLINK-1313 3.7 01:55:09 10° W 01:58:13 50° N 02:01:17 10° ENE
STARLINK-48 3.5 01:54:19 10° WSW 01:58:13 80° NNW 02:02:08 10° ENE
STARLINK-1279 3.7 01:56:05 10° W 01:59:09 50° N 02:02:12 10° ENE
STARLINK-1278 3.7 01:55:27 10° WSW 01:59:42 78° SSE 02:03:59 10° ENE
STARLINK-1298 3.7 01:56:41 10° W 01:59:45 51° N 02:02:49 10° ENE
Cosmos 1825 2.5 01:56:16 10° S 01:59:59 64° E 02:03:44 10° NNE
Cosmos 2237 4.5 01:54:49 10° SSW 02:00:29 68° ESE 02:06:12 10° NNE
STARLINK-1293 3.7 01:57:38 10° W 02:00:41 51° N 02:03:45 10° ENE
SL-16 R/B 3.5 01:55:28 10° SSW 02:00:41 28° W 02:05:58 10° NW
STARLINK-80 3.9 01:57:02 10° W 02:00:48 59° NNW 02:04:34 10° ENE
STARLINK-1341 3.5 01:57:23 10° WNW 02:01:22 89° SSW 02:05:20 10° ESE
STARLINK-1283 4.1 01:57:20 10° W 02:01:26 61° N 02:05:32 10° ENE
STARLINK-1280 3.7 01:57:17 10° WSW 02:01:33 79° SSE 02:05:49 10° ENE
STARLINK 1040 3.8 01:59:32 10° WNW 02:01:59 40° N 02:04:26 10° E
SL-08 R/B 3.2 01:57:36 10° S 02:02:12 72° WSW 02:06:51 10° NNW
STARLINK-69 4.5 01:59:20 10° SSW 02:02:26 30° SE 02:05:37 10° E
STARLINK-1255 3.7 01:59:26 10° W 02:02:30 51° N 02:05:35 10° ENE
STARLINK-22 3.8 02:00:15 10° W 02:03:24 50° N 02:06:33 10° ENE
IRS-P3 4.2 01:58:22 10° NNE 02:03:43 88° WNW 02:09:03 10° SSW
STARLINK-1311 3.7 02:01:40 10° W 02:04:32 46° N 02:07:25 10° ENE
Cosmos 1844 Rocket 2.7 01:59:33 10° NNW 02:05:12 83° WSW 02:10:47 10° SSE
STARLINK-1297 3.9 02:01:54 10° W 02:05:28 57° N 02:09:03 10° ENE
STARLINK-45 4.4 02:02:35 10° SSW 02:05:50 32° SE 02:09:06 10° E
STARLINK-1374 3.5 02:01:51 10° WNW 02:05:52 86° SSW 02:09:52 10° ESE
NOSS 2-1 (E) 3.6 02:05:08 10° WSW 02:08:29 53° NW 02:12:18 10° NE
STARLINK-76 4.4 02:05:42 10° SSW 02:08:56 31° SE 02:12:12 10° E
STARLINK-70 4.4 02:06:04 10° SSW 02:09:23 33° SE 02:12:44 10° ENE
STARLINK-1339 3.5 02:06:01 10° WNW 02:09:59 82° SSW 02:13:57 10° ESE
STARLINK-1286 3.6 02:06:00 10° WSW 02:10:11 81° SSE 02:14:23 10° ENE
SL-16 R/B 2.6 02:04:46 10° SW 02:10:19 56° NW 02:15:57 10° NNE
STARLINK-23 4.4 02:07:18 10° SSW 02:10:34 32° SE 02:13:51 10° E
CZ-2D R/B 3.2 02:06:33 10° N 02:11:09 32° WNW 02:15:43 10° SW
STARLINK-32 4.3 02:08:46 10° SSW 02:12:00 33° SE 02:15:16 10° E
Cosmos 2221 4.0 02:09:14 10° NW 02:12:31 21° W 02:15:48 10° SW
STARLINK-1281 3.6 02:09:16 10° WSW 02:13:25 82° SSE 02:17:35 10° ENE
STARLINK-40 4.3 02:10:30 10° SSW 02:13:48 34° SE 02:17:07 10° ENE
STARLINK-42 3.9 02:10:52 10° WNW 02:13:54 45° N 02:16:55 10° ENE
STARLINK-1377 3.5 02:10:33 10° WNW 02:14:33 79° SSW 02:18:34 10° ESE
COSMOS 2428 4.3 02:10:07 10° SSE 02:14:59 30° ESE 02:19:52 10° NE
STARLINK-44 4.3 02:12:03 10° SSW 02:15:22 35° SE 02:18:43 10° ENE
CZ-4C R/B 3.6 02:12:06 10° SSE 02:15:42 65° ENE 02:19:18 10° N
STARLINK-1029 3.5 02:12:36 10° W 02:15:43 57° NNW 02:18:52 10° ENE
STARLINK-34 3.6 02:13:35 10° W 02:16:36 51° N 02:19:37 10° ENE
Cosmos 773 Rocket 4.2 02:11:55 10° SSW 02:17:10 80° ESE 02:22:30 10° NNE
STARLINK-37 4.1 02:13:48 10° SW 02:17:10 38° SE 02:20:34 10° ENE
STARLINK-41 3.9 02:14:29 10° WNW 02:17:26 44° N 02:20:24 10° ENE
FALCON 9 DEB 3.7 02:14:52 10° WNW 02:18:04 36° SW 02:21:16 10° SSE
STARLINK-1310 3.6 02:14:15 10° WSW 02:18:24 86° SSE 02:22:34 10° ENE
STARLINK-36 4.2 02:15:15 10° SSW 02:18:36 36° SE 02:21:58 10° ENE
STARLINK-1353 3.5 02:14:53 10° WNW 02:18:54 75° SSW 02:22:54 10° ESE
ATLAS 5 CENTAUR R/B 4.3 02:17:20 10° NNW 02:19:08 16° NNE 02:21:57 10° ENE
STARLINK-62 3.7 02:17:27 10° W 02:20:26 49° N 02:23:24 10° ENE
STARLINK-1272 4.0 02:17:46 10° W 02:21:15 52° N 02:24:44 10° ENE
STARLINK-63 4.0 02:18:33 10° SW 02:21:57 40° SE 02:25:22 10° ENE
STARLINK-1375 3.5 02:19:16 10° WNW 02:23:16 71° SSW 02:27:16 10° ESE
STARLINK-35 4.1 02:19:58 10° SW 02:23:18 39° SE 02:26:40 10° ENE
STARLINK-1319 3.7 02:19:13 10° WSW 02:23:22 89° S 02:27:32 10° ENE
STARLINK-51 4.0 02:21:42 10° SW 02:25:07 40° SE 02:28:32 10° ENE
Cosmos 2366 rocket 4.1 02:19:57 10° S 02:26:13 90° NE 02:32:36 10° N
Cosmos 2278 Rocket 3.8 02:21:40 10° NNW 02:27:03 41° NE 02:32:24 10° ESE
